Overview Statistics Trail Chart Weather Telemetry Raw packets
 

This is the latest recevied weather packets stored in our database for station/object WX6HNX-14. If no packets are shown the sender has not sent any weather packets the latest 10 day(s).

<< 23 24 25 26 27 28 29 >>
Time Temp. Humidity Pressure Rain* Wind** Luminosity Snow
1777604063 23.89° C 47% 1010.5 hPa 0 mm - - -
1777603687 25° C 44% 1010.4 hPa 0 mm - - -
1777603386 25.56° C 42% 1010.4 hPa 0 mm - - -
1777602843 26.11° C 38% 1010.4 hPa 0 mm - - -
1777602318 27.22° C 37% 1010.3 hPa 0 mm - - -
1777602017 27.22° C 34% 1010.2 hPa 0 mm - - -
1777601717 27.78° C 33% 1010.3 hPa 0 mm - - -
1777600818 27.78° C 32% 1010.2 hPa 0 mm - - -
1777600518 28.33° C 30% 1010.2 hPa 0 mm - - -
1777600217 28.33° C 30% 1010.2 hPa 0 mm - - -
1777599917 28.33° C 30% 1010.1 hPa 0 mm - - -
1777599618 28.33° C 30% 1010.2 hPa 0 mm - - -
1777599018 28.33° C 30% 1010.2 hPa 0 mm - - -
1777598717 28.33° C 30% 1010.2 hPa 0 mm - - -
1777597818 28.33° C 30% 1010.2 hPa 0 mm - - -
1777597218 28.33° C 30% 1010.2 hPa 0 mm - - -
1777596494 28.33° C 30% 1010.1 hPa 0 mm - - -
1777596194 28.33° C 30% 1010.1 hPa 0 mm - - -
1777595894 28.33° C 29% 1010.2 hPa 0 mm - - -
1777595594 28.33° C 30% 1010.3 hPa 0 mm - - -
1777595294 28.33° C 31% 1010.2 hPa 0 mm - - -
1777594994 28.33° C 30% 1010.2 hPa 0 mm - - -
1777594395 28.33° C 31% 1010.3 hPa 0 mm - - -
1777593794 28.33° C 32% 1010.3 hPa 0 mm - - -
1777593498 28.33° C 32% 1010.3 hPa 0 mm - - -

* Rain latest hour (hover to see other rain measurements)
** Current wind speed in m/s (hover to see current wind gust speed)